Content
SEND FEEDBACK

Daily
Averages
Monthly
Summary
United States of America

BROOKLYN, NEW YORK


Home > North America > United States > New York
Elevation: 2 feet     Latitude: 40 36N     Longitude: 073 59W

WEATHER
 
SELECT A DAY
Number of Records: 188,190;   Date Range: 1/1/95 - 10/23/14
 
SHARE

PRINT THIS DATA

[ ← Previous Day ]
WEATHER ALMANAC - NOVEMBER 16, 2013
[ Next Day → ]
[ °C ]   °F
Weather ElementAverageHighLow
Temperature49.5 °F55 °F (11:51 am)45 °F (8:51 pm)
Dewpoint42.2 °F46.9 °F (3:51 pm)33.1 °F (2:51 am)
Humidity77 %97 % (10:51 pm)54 % (2:51 am)
Barometer30.31 in30.35 in (9:51 am)30.27 in (1:51 am)
Wind Speed4.7 mph10.4 mph (2:51 pm)
Weather ElementAverage
Visibility9.1 mi
Wind DirectionSSE (149.1 °)

Weather ElementTotal
Precipitation0.08 in
Heating Degree Days15 (Base 65)
Averaged from 23 records on November 16, 2013
WEATHER CONDITIONS BREAKOUT
WIND DIRECTION BREAKOUT
WEATHER BY HOUR - NOVEMBER 16, 2013
[ °C ]   °F
Local TimeTemperatureDewpointHumidityBarometerVisibilityWind DirectionWind SpeedGust SpeedPrecipitationEventsConditions
1:51 AM46.0 °F35.1 °F66 %30.27 in10.0 miWSW (250°)8.1 mphOvercast
2:51 AM48.9 °F33.1 °F54 %30.27 in10.0 miWest (270°)8.1 mphOvercast
3:51 AM48.9 °F33.1 °F54 %30.27 in10.0 miWSW (250°)3.5 mph0.00 inRainLight Rain
4:51 AM48.0 °F35.1 °F61 %30.27 in10.0 miWSW (240°)3.5 mph0.00 inRainLight Rain
5:51 AM46.9 °F37.0 °F68 %30.30 in10.0 miNNW (340°)4.6 mph0.02 inRainLight Rain
6:51 AM46.0 °F37.9 °F73 %30.32 in7.0 miNorth (350°)6.9 mph0.02 inRainLight Rain
7:51 AM46.9 °F41.0 °F80 %30.32 in9.0 miCalm0.04 inRainLight Rain
8:51 AM48.9 °F44.1 °F83 %30.33 in10.0 miCalm0.00 inMostly Cloudy
9:51 AM51.1 °F45.0 °F80 %30.35 in10.0 miCalmMostly Cloudy
10:51 AM54.0 °F46.0 °F75 %30.35 in10.0 miSSW (200°)5.8 mphScattered Clouds
11:51 AM55.0 °F45.0 °F69 %30.32 in10.0 miSouth (180°)6.9 mphScattered Clouds
12:51 PM55.0 °F45.0 °F69 %30.32 in10.0 miSSW (200°)9.2 mphScattered Clouds
1:51 PM55.0 °F46.0 °F72 %30.31 in10.0 miSSW (200°)9.2 mphScattered Clouds
2:51 PM54.0 °F46.0 °F75 %30.32 in10.0 miSouth (190°)10.4 mphScattered Clouds
3:51 PM53.1 °F46.9 °F80 %30.32 in10.0 miSouth (170°)10.4 mphScattered Clouds
4:51 PM51.1 °F46.0 °F83 %30.32 in10.0 miSSE (160°)5.8 mphScattered Clouds
5:51 PM51.1 °F46.0 °F83 %30.32 in10.0 miSouth (180°)8.1 mphScattered Clouds
6:51 PM48.9 °F45.0 °F86 %30.32 in10.0 miSouth (180°)3.5 mphScattered Clouds
7:51 PM50.0 °F46.0 °F86 %30.31 in10.0 miCalmScattered Clouds
8:51 PM45.0 °F43.0 °F93 %30.31 in5.0 miCalmScattered Clouds
9:51 PM45.0 °F42.1 °F90 %30.31 in6.0 miCalmMostly Cloudy
10:51 PM45.0 °F44.1 °F97 %30.30 in6.0 miCalmMostly Cloudy
11:51 PM45.0 °F43.0 °F93 %30.29 in6.0 miENE (70°)4.6 mphMostly Cloudy
Hourly data recorded from KJFK, located miles away from Brooklyn, New York







STORIES FROM OUR PARTNERS